User: anonymous   Login
Location: Caltech
(34.1382°N, 118.1253°W)
Time: 10:31:48
(UTC-07:00)
Language:

PANSAT - Orbit

View from above orbital plane
View from above orbital plane
View from above satellite
View from above satellite

Ground track
Ground track

The orbit data is extracted from the following two-line orbital elements,

1 25520U 98064B   15144.25096322  .00002075  00000-0  69858-4 0  9999
2 25520 028.4575 079.4364 0004470 275.2660 209.9898 15.26180722918741
Epoch (UTC): 24 May 2015 06:01:23
Eccentricity: 0.0004470
inclination: 28.4575°
perigee height: 484 km
apogee height: 490 km
right ascension of ascending node: 79.4364°
argument of perigee: 275.2660°
revolutions per day: 15.26180722
mean anomaly at epoch: 209.9898°
orbit number at epoch: 91874

The dashed part of the orbit path shows where the satellite is in the earth's shadow,  

DLR